When you browse on this site, cookies collect data to enhance your experience and personalize the content and advertising you see.
Visit our Privacy Policy to learn more. By continuing to use the site, you agree to this use of cookies and data.
  • In Hungary
  • List of Countries
  • For 7 days
  • Water Temperature
  • Weather Map
  • News
  • Weather Widgets
  • user-avatar
    Login

    Hourly Weather Swiniarow

    Today, 21 February, Friday

    Time Temperature Precipitation Wind Pressure Humidity
    00:00 0°C° 0 mm 3 mps 752 mmHg 77%
    01:00 -1°C° 0 mm 4 mps 751 mmHg 79%
    02:00 -1°C° 0 mm 4 mps 751 mmHg 82%
    03:00 -1°C° 0 mm 4 mps 750 mmHg 82%
    04:00 -1°C° 0 mm 5 mps 749 mmHg 82%
    05:00 -1°C° 0 mm 5 mps 749 mmHg 82%
    06:00 -2°C° 0 mm 6 mps 748 mmHg 81%
    07:00 -2°C° 0 mm 6 mps 748 mmHg 81%
    08:00 -1°C° 0 mm 7 mps 747 mmHg 80%
    15:00 0°C° 0.6 mm 5 mps 747 mmHg 96%
    16:00 0°C° 0.6 mm 4 mps 748 mmHg 96%
    17:00 0°C° 0.6 mm 4 mps 749 mmHg 96%
    18:00 0°C° 0.1 mm 4 mps 749 mmHg 94%
    19:00 +1°C° 0.1 mm 3 mps 750 mmHg 92%
    20:00 +1°C° 0.1 mm 3 mps 751 mmHg 89%
    21:00 +1°C° 0 mm 3 mps 752 mmHg 89%
    22:00 0°C° 0 mm 3 mps 752 mmHg 88%
    23:00 0°C° 0 mm 3 mps 753 mmHg 87%

    Tomorrow, 22 February, Saturday

    Time Temperature Precipitation Wind Pressure Humidity
    00:00 0°C° 0 mm 3 mps 753 mmHg 88%
    01:00 0°C° 0 mm 3 mps 754 mmHg 89%
    02:00 0°C° 0 mm 3 mps 754 mmHg 90%
    03:00 0°C° 0 mm 3 mps 754 mmHg 91%
    04:00 -1°C° 0 mm 3 mps 754 mmHg 92%
    05:00 -1°C° 0 mm 3 mps 754 mmHg 93%
    06:00 -1°C° 0 mm 3 mps 754 mmHg 93%
    07:00 -2°C° 0 mm 4 mps 754 mmHg 92%
    08:00 -1°C° 0 mm 4 mps 754 mmHg 92%
    09:00 0°C° 0 mm 5 mps 754 mmHg 84%
    10:00 +1°C° 0 mm 6 mps 753 mmHg 77%
    11:00 +2°C° 0 mm 7 mps 753 mmHg 69%
    12:00 +3°C° 0 mm 7 mps 752 mmHg 66%
    13:00 +4°C° 0 mm 8 mps 751 mmHg 63%
    14:00 +3°C° 0 mm 9 mps 750 mmHg 59%
    15:00 +3°C° 0 mm 9 mps 749 mmHg 60%
    16:00 +3°C° 0 mm 9 mps 748 mmHg 61%
    17:00 +3°C° 0 mm 9 mps 747 mmHg 62%
    18:00 +3°C° 0 mm 9 mps 746 mmHg 62%
    19:00 +4°C° 0 mm 8 mps 746 mmHg 62%
    20:00 +5°C° 0 mm 8 mps 745 mmHg 61%
    21:00 +5°C° 0 mm 8 mps 745 mmHg 61%
    22:00 +5°C° 0 mm 9 mps 744 mmHg 60%
    23:00 +6°C° 0 mm 9 mps 744 mmHg 60%

    Day after tomorrow, 23 February, Sunday

    Time Temperature Precipitation Wind Pressure Humidity
    00:00 +5°C° 0.4 mm 8 mps 744 mmHg 65%
    01:00 +4°C° 0.4 mm 8 mps 744 mmHg 69%
    02:00 +4°C° 0.4 mm 8 mps 744 mmHg 74%
    03:00 +2°C° 0 mm 8 mps 744 mmHg 72%
    04:00 +2°C° 0 mm 8 mps 744 mmHg 70%
    05:00 +1°C° 0 mm 8 mps 744 mmHg 68%
    06:00 +1°C° 0.1 mm 8 mps 744 mmHg 70%
    07:00 0°C° 0.1 mm 8 mps 745 mmHg 72%
    08:00 0°C° 0.1 mm 8 mps 745 mmHg 75%
    09:00 0°C° 0 mm 8 mps 745 mmHg 70%
    10:00 +1°C° 0 mm 9 mps 745 mmHg 65%
    11:00 +2°C° 0 mm 9 mps 746 mmHg 60%
    12:00 +2°C° 0 mm 9 mps 745 mmHg 57%
    13:00 +2°C° 0 mm 8 mps 745 mmHg 55%
    14:00 +4°C° 0 mm 8 mps 745 mmHg 52%
    15:00 +4°C° 0 mm 7 mps 744 mmHg 56%
    16:00 +3°C° 0 mm 7 mps 743 mmHg 60%
    17:00 +3°C° 0 mm 6 mps 742 mmHg 64%
    18:00 +2°C° 0.2 mm 6 mps 741 mmHg 74%
    19:00 +2°C° 0.2 mm 6 mps 740 mmHg 85%
    20:00 +1°C° 0.2 mm 6 mps 739 mmHg 95%
    21:00 +1°C° 2.1 mm 6 mps 736 mmHg 95%
    22:00 +1°C° 2.1 mm 5 mps 733 mmHg 96%
    23:00 +1°C° 2.1 mm 5 mps 731 mmHg 97%

    24 February, Monday

    Time Temperature Precipitation Wind Pressure Humidity
    00:00 +1°C° 2.5 mm 6 mps 730 mmHg 95%
    01:00 0°C° 2.5 mm 7 mps 729 mmHg 94%
    02:00 +1°C° 2.5 mm 8 mps 729 mmHg 93%
    03:00 0°C° 0.9 mm 10 mps 731 mmHg 93%
    04:00 -2°C° 0.9 mm 11 mps 733 mmHg 93%
    05:00 -3°C° 0.9 mm 12 mps 736 mmHg 93%
    06:00 -3°C° 0.2 mm 11 mps 738 mmHg 93%
    07:00 -2°C° 0.2 mm 10 mps 740 mmHg 92%
    08:00 -2°C° 0.2 mm 10 mps 742 mmHg 91%
    09:00 -1°C° 0.1 mm 9 mps 743 mmHg 87%
    10:00 0°C° 0.1 mm 9 mps 744 mmHg 83%
    11:00 +1°C° 0.1 mm 9 mps 745 mmHg 79%
    12:00 +2°C° 0 mm 9 mps 745 mmHg 72%
    13:00 +2°C° 0 mm 9 mps 746 mmHg 64%
    14:00 +4°C° 0 mm 8 mps 747 mmHg 57%
    15:00 +4°C° 0 mm 7 mps 748 mmHg 59%
    16:00 +3°C° 0 mm 7 mps 748 mmHg 62%
    17:00 +3°C° 0 mm 6 mps 749 mmHg 64%
    18:00 +2°C° 0 mm 5 mps 749 mmHg 69%
    19:00 +1°C° 0 mm 4 mps 750 mmHg 74%
    20:00 +1°C° 0 mm 3 mps 750 mmHg 78%
    21:00 +1°C° 0 mm 3 mps 750 mmHg 81%
    22:00 +1°C° 0 mm 3 mps 750 mmHg 83%
    23:00 0°C° 0 mm 3 mps 750 mmHg 85%

    25 February, Tuesday

    Time Temperature Precipitation Wind Pressure Humidity
    00:00 0°C° 0 mm 3 mps 749 mmHg 85%
    01:00 -1°C° 0 mm 4 mps 749 mmHg 85%
    02:00 0°C° 0 mm 4 mps 748 mmHg 84%
    03:00 0°C° 0 mm 5 mps 747 mmHg 82%
    04:00 0°C° 0 mm 5 mps 746 mmHg 81%
    05:00 -1°C° 0 mm 6 mps 745 mmHg 79%
    06:00 -1°C° 0.4 mm 6 mps 744 mmHg 83%
    07:00 -2°C° 0.4 mm 7 mps 743 mmHg 87%
    08:00 -2°C° 0.4 mm 8 mps 742 mmHg 92%
    09:00 -1°C° 0.4 mm 7 mps 742 mmHg 90%
    10:00 0°C° 0.4 mm 7 mps 741 mmHg 88%
    11:00 +3°C° 0.4 mm 7 mps 741 mmHg 87%
    12:00 +4°C° 0.1 mm 7 mps 740 mmHg 85%
    13:00 +5°C° 0.1 mm 7 mps 740 mmHg 83%
    14:00 +6°C° 0.1 mm 7 mps 740 mmHg 81%
    15:00 +7°C° 0 mm 6 mps 740 mmHg 83%
    16:00 +7°C° 0 mm 6 mps 739 mmHg 85%
    17:00 +6°C° 0 mm 5 mps 739 mmHg 88%
    18:00 +6°C° 0 mm 5 mps 739 mmHg 89%
    19:00 +6°C° 0 mm 5 mps 739 mmHg 89%
    20:00 +6°C° 0 mm 5 mps 738 mmHg 90%
    21:00 +6°C° 0 mm 5 mps 738 mmHg 91%
    22:00 +5°C° 0 mm 5 mps 738 mmHg 92%
    23:00 +5°C° 0 mm 5 mps 738 mmHg 92%

    26 February, Wednesday

    Time Temperature Precipitation Wind Pressure Humidity
    00:00 +5°C° 0.3 mm 5 mps 737 mmHg 93%
    01:00 +5°C° 0.3 mm 5 mps 737 mmHg 93%
    02:00 +5°C° 0.3 mm 5 mps 736 mmHg 94%
    03:00 +5°C° 0.2 mm 5 mps 736 mmHg 93%
    04:00 +5°C° 0.2 mm 5 mps 735 mmHg 92%
    05:00 +5°C° 0.2 mm 5 mps 735 mmHg 91%
    06:00 +5°C° 1.2 mm 5 mps 734 mmHg 91%
    07:00 +3°C° 1.2 mm 5 mps 734 mmHg 92%
    08:00 +3°C° 1.2 mm 5 mps 734 mmHg 92%
    09:00 +2°C° 0.4 mm 5 mps 734 mmHg 92%
    10:00 +2°C° 0.4 mm 5 mps 735 mmHg 92%
    11:00 +1°C° 0.4 mm 5 mps 735 mmHg 92%
    12:00 +2°C° 0 mm 5 mps 735 mmHg 81%
    13:00 +3°C° 0 mm 5 mps 735 mmHg 70%
    14:00 +4°C° 0 mm 6 mps 735 mmHg 59%
    15:00 +4°C° 0.1 mm 6 mps 735 mmHg 63%
    16:00 +4°C° 0.1 mm 6 mps 735 mmHg 66%
    17:00 +3°C° 0.1 mm 6 mps 735 mmHg 70%
    18:00 +3°C° 0.3 mm 6 mps 735 mmHg 68%
    19:00 +2°C° 0.3 mm 6 mps 735 mmHg 67%
    20:00 +2°C° 0.3 mm 5 mps 735 mmHg 65%
    21:00 +1°C° 0 mm 5 mps 735 mmHg 66%
    22:00 +1°C° 0 mm 5 mps 735 mmHg 66%
    23:00 0°C° 0 mm 5 mps 735 mmHg 66%
    Show more